Weather History for Glens Falls, NY

Change the Weather History Date:

Sunday, October 7, 2012

  Actual Average Record
Temperature  
Mean Temperature 46 °F 50 °F  
Max Temperature 54 °F 62 °F 87 °F (1963)
Min Temperature 37 °F 38 °F 24 °F (1964)
Degree Days  
Heating Degree Days 19 15  
Month to date heating degree days 55 99  
Since 1 July heating degree days 284 384  
Cooling Degree Days 0 0  
Month to date cooling degree days 0 0  
Year to date cooling degree days 533 351  
Moisture  
Dew Point 40 °F    
Average Humidity 77    
Maximum Humidity 100    
Minimum Humidity 54    
Precipitation  
Precipitation 0.15 in 0.11 in 3.57 in (1972)
Month to date precipitation 0.44 0.82  
Year to date precipitation 26.47 30.01  
Sea Level Pressure  
Sea Level Pressure 30.05 in    
Wind  
Wind Speed 3 mph (SSW)    
Max Wind Speed 13 mph    
Max Gust Speed 18 mph    
Visibility 10 miles    
Events Rain    
T = Trace of Precipitation, MM = Missing Value Source: NWS Daily Summary

Daily Weather History Graph

Daily Weather History Graph

Search for Another Location

Airport:

Trip Planner

Search our weather history database for the weather conditions in past years. The results will help you decide how hot, cold, wet, or windy it might be!

Date:

Astronomy

Oct. 07, 2012 Rise Set
Actual Time 6:59 AM EDT 6:24 PM EDT
Civil Twilight 6:30 AM EDT 6:52 PM EDT
Nautical Twilight 5:57 AM EDT 7:25 PM EDT
Astronomical Twilight 5:24 AM EDT 7:58 PM EDT
Moon 11:26 PM EDT (10/7) 1:41 PM EDT (10/7)
Length of Visible Light 12h 21m
Length of Day
11h 24m
Waning Gibbous, 56% of the Moon is Illuminated
Oct 7
Waning Gibbous
Oct 8
Last Quarter
Oct 15
New
Oct 21
First Quarter
Oct 29
Full

Hourly Weather History & Observations

Time (EDT) Temp. Windchill Dew Point Humidity Pressure Visibility Wind Dir Wind Speed Gust Speed Precip Events Conditions
12:53 AM 45.0 °F 42.6 °F 37.9 °F 76% 29.98 in 10.0 mi SW 4.6 mph - N/A   Clear
1:53 AM 42.1 °F 39.2 °F 39.0 °F 89% 29.99 in 10.0 mi ESE 4.6 mph - N/A   Clear
2:53 AM 43.0 °F 41.3 °F 37.9 °F 82% 30.00 in 10.0 mi SSW 3.5 mph - N/A   Clear
3:53 AM 37.9 °F 35.5 °F 37.0 °F 97% 30.02 in 10.0 mi SSE 3.5 mph - N/A   Clear
4:53 AM 39.0 °F - 37.9 °F 96% 30.04 in 10.0 mi Calm Calm - N/A   Clear
5:53 AM 39.9 °F 37.8 °F 39.0 °F 97% 30.04 in 10.0 mi NE 3.5 mph - N/A   Clear
6:53 AM 41.0 °F - 39.9 °F 96% 30.05 in 10.0 mi Calm Calm - N/A   Clear
7:53 AM 42.1 °F - 41.0 °F 96% 30.06 in 10.0 mi Calm Calm - N/A   Mostly Cloudy
8:53 AM 44.1 °F 42.5 °F 41.0 °F 89% 30.07 in 10.0 mi SSW 3.5 mph - N/A   Overcast
9:53 AM 46.0 °F - 42.1 °F 86% 30.08 in 10.0 mi Calm Calm - N/A   Mostly Cloudy
10:53 AM 48.9 °F - 42.1 °F 77% 30.08 in 10.0 mi South 5.8 mph - N/A   Partly Cloudy
11:53 AM 51.1 °F - 41.0 °F 68% 30.08 in 10.0 mi SSW 4.6 mph - N/A   Partly Cloudy
12:53 PM 52.0 °F - 39.0 °F 61% 30.08 in 10.0 mi South 6.9 mph - N/A   Overcast
1:53 PM 53.1 °F - 39.9 °F 61% 30.05 in 10.0 mi South 9.2 mph - N/A   Overcast
2:53 PM 53.1 °F - 39.0 °F 59% 30.04 in 10.0 mi South 9.2 mph - N/A   Overcast
3:53 PM 54.0 °F - 39.0 °F 57% 30.02 in 10.0 mi SSW 5.8 mph - N/A   Mostly Cloudy
4:53 PM 53.1 °F - 37.9 °F 57% 30.02 in 10.0 mi SW 5.8 mph - N/A   Overcast
5:53 PM 52.0 °F - 37.9 °F 59% 30.01 in 10.0 mi Calm Calm - N/A   Scattered Clouds
6:53 PM 50.0 °F - 39.9 °F 68% 30.02 in 10.0 mi South 3.5 mph - N/A   Mostly Cloudy
7:53 PM 50.0 °F - 41.0 °F 71% 30.05 in 10.0 mi SW 5.8 mph - N/A   Overcast
8:53 PM 46.0 °F - 46.0 °F 100% 30.06 in 2.5 mi Calm Calm - 0.05 in Rain Rain
9:53 PM 46.0 °F - 45.0 °F 96% 30.07 in 10.0 mi Calm Calm - 0.03 in Rain Light Rain
10:53 PM 46.0 °F - 44.1 °F 93% 30.08 in 10.0 mi Calm Calm - 0.02 in Rain Light Rain
11:53 PM 45.0 °F - 44.1 °F 97% 30.09 in 10.0 mi Calm Calm - 0.04 in Rain Light Rain